Home   Weather   Wroclaw   Past weeks

Flag for Poland Past Weather in Wroclaw, Poland — Yesterday and Last 2 Weeks

Now
59 °F

Scattered clouds.


Feels Like: 59 °F
Forecast: 54 / 75 °F
Wind: 5 mph from East

Location: Wroclaw Ii

Current Time: May 24, 2018 at 6:13:21 am

Latest Report: May 24, 2018 at 5:30 am


Visibility: N/A

Pressure: 30.21 "Hg

Humidity: 68%

Dew Point: 48 °F

Location of WroclawLocation

Past Weather in Wroclaw — Graph

°F

Wroclaw Temperature Yesterday

Maximum temperature yesterday: 77 °F (at 2:00 pm)
Minimum temperature yesterday: 54 °F (at 4:00 am)
Average temperature yesterday: 66 °F

High & Low Weather Summary for the Past Weeks

 TemperatureHumidityPressure
High79 °F (May 9, 3:00 pm)100% (May 11, 3:30 am)30.27 "Hg (May 11, 3:30 am)
Low43 °F (May 20, 5:00 am)27% (May 13, 2:00 pm)29.74 "Hg (May 17, 2:30 am)
Average61 °F69%30.00 "Hg
* Reported May 9 5:00 am — May 24 5:00 am, Wroclaw. Weather by CustomWeather, © 2018

Note: Actual official high and low records may vary slightly from our data, if they occured in-between our weather recording intervals... More about our weather records

Advertising

Wroclaw Weather History for the Previous 24 Hours

Scroll right to see more
 ConditionsComfort  
Time TempWeatherWind HumidityBarometerVisibility
5:00 am
Thu, May 24
57 °FPassing clouds.5 mph72%30.21 "HgN/A
4:30 am57 °FClear.6 mph72%30.18 "Hg10 mi
4:00 am57 °FClear.5 mph72%30.18 "Hg10 mi
3:30 am57 °FClear.5 mph72%30.18 "Hg10 mi
2:30 am59 °FPassing clouds.6 mph68%30.18 "HgN/A
2:00 am61 °FClear.6 mph68%30.18 "Hg10 mi
1:30 am61 °FClear.6 mph68%30.18 "Hg10 mi
1:00 am63 °FPassing clouds.6 mph64%30.18 "HgN/A
12:30 am63 °FClear.7 mph64%30.18 "Hg10 mi
12:00 am64 °FClear.8 mph60%30.18 "Hg10 mi
11:30 pm
Wed, May 23
64 °FClear.8 mph60%30.18 "Hg10 mi
11:00 pm66 °FClear.9 mph56%30.18 "Hg10 mi
10:30 pm66 °FClear.8 mph60%30.18 "Hg10 mi
10:00 pm66 °FClear.8 mph60%30.18 "Hg10 mi
9:30 pm66 °FClear.7 mph60%30.15 "Hg10 mi
8:30 pm70 °FSunny.5 mph57%30.15 "Hg10 mi
8:00 pm70 °FSunny.6 mph57%30.12 "Hg10 mi
7:30 pm70 °FSunny.6 mph64%30.12 "Hg10 mi
7:00 pm70 °FPassing clouds.3 mph83%30.12 "HgN/A
6:30 pm72 °FSunny.1 mph78%30.12 "Hg10 mi
6:00 pm70 °FPassing clouds.2 mph78%30.12 "HgN/A
5:30 pm68 °FPassing clouds.1 mph88%30.12 "HgN/A
5:00 pm64 °FSprinkles. Scattered clouds.6 mph94%30.12 "HgN/A
4:30 pm66 °FThunderstorms. Broken clouds.14 mph78%30.12 "Hg5 mi
4:00 pm73 °FScattered clouds.7 mph57%30.12 "HgN/A
3:30 pm77 °FPassing clouds.7 mph51%30.12 "HgN/A
3:00 pm77 °FPassing clouds.9 mph47%30.12 "HgN/A
2:30 pm75 °FPassing clouds.7 mph50%30.12 "HgN/A
2:00 pm77 °FPassing clouds.8 mph54%30.12 "HgN/A
1:30 pm73 °FPassing clouds.5 mph53%30.12 "HgN/A
1:00 pm75 °FPassing clouds.7 mph54%30.12 "HgN/A
12:30 pm73 °FPassing clouds.9 mph57%30.12 "HgN/A
12:00 pm73 °FPassing clouds.9 mph57%30.12 "HgN/A
11:30 am72 °FPassing clouds.9 mph61%30.12 "HgN/A
11:00 am72 °FPassing clouds.7 mph61%30.12 "HgN/A
10:30 am70 °FPassing clouds.6 mph64%30.12 "HgN/A
10:00 am68 °FSunny.9 mph64%30.12 "Hg10 mi
9:30 am66 °FSunny.9 mph68%30.12 "Hg10 mi
9:00 am66 °FSunny.9 mph64%30.09 "Hg10 mi
8:30 am64 °FSunny.10 mph64%30.09 "Hg10 mi
8:00 am66 °FPassing clouds.6 mph64%30.09 "HgN/A
7:30 am64 °FPassing clouds.5 mph64%30.09 "HgN/A
7:00 am61 °FSunny.2 mph77%30.07 "Hg10 mi
6:30 am57 °FSunny.2 mph82%30.07 "Hg10 mi
6:00 am55 °FSunny.2 mph82%30.07 "Hg10 mi
Weather by CustomWeather, © 2018

See weather overview